Regional Weather Roundup
Issued by NWS New Orleans/Baton Rouge, LA

Home | Current Version | Previous Version | Text Only | Print | Product List | Glossary On
Versions: 1 2 3 4 5 6 7 8 9 10 11 12 13 14 15 16 17 18 19 20 21 22 23 24 25 26 27 28 29 30 31 32 33 34 35 36 37 38 39 40 41 42 43 44 45 46 47 48 49 50
000
ASUS44 KLIX 301511
RWRLIX
NEW ORLEANS REGIONAL WEATHER ROUNDUP
NATIONAL WEATHER SERVICE NEW ORLEANS LA
1000 AM CDT SAT MAY 30 2015

NOTE: "FAIR" INDICATES FEW OR NO CLOUDS BELOW 12,000 FEET WITH NO
      SIGNIFICANT WEATHER AND/OR OBSTRUCTIONS TO VISIBILITY.
      SKY/WX - SKY CONDITION AND SIGNIFICANT WEATHER.
      TMP - AIR TEMPERATURE.     DP    - DEWPOINT TEMPERATURE.
      RH  - RELATIVE HUMIDITY.   PRES  - PRESSURE.
      HI  - HEAT INDEX.          WCI   - WIND CHILL INDEX.

*  THESE STATIONS ARE NOT NWS OR FAA STATIONS AND ARE NOT UNDER
   NWS QUALITY CONTROL.

LAZ038-040-048-061>063-065>067-069-301600-
SOUTHEAST LOUISIANA

CITY           SKY/WX    TMP DP  RH WIND       PRES   REMARKS
N.O. AUDUBON     N/A     85  73  65 MISG        N/A
N.O. INTL ARPT PTSUNNY   83  68  60 SE3       30.07F
N.O. LAKEFRONT MOSUNNY   85  69  58 VRB3      30.08S
SLIDELL        MOSUNNY   82  72  71 SE7       30.08S
BATON ROUGE    MOSUNNY   82  70  66 VRB5      30.07S
BOOTHVILLE     MOSUNNY   83  72  69 E6        30.09R
BELLE CHASSE   PTSUNNY   78  66  66 SE5       30.07S
BOGALUSA*        N/A     80  71  74 CALM      30.10F
GALLIANO*      PTSUNNY   81  68  65 S5        30.09R
NEW ROADS*       N/A     81  71  69 S7        30.08R
GONZALES*        N/A     82  71  68 S6        30.07S
HAMMOND*       MOSUNNY   82  68  61 CALM      30.10S
HOUMA*         MOSUNNY   82  72  69 SE5       30.07S
PORT FOURCHON* PTSUNNY   82  72  69 E8        30.09R

$$

MSZ070-080>082-301600-
SOUTHERN MISSISSIPPI

CITY           SKY/WX    TMP DP  RH WIND       PRES   REMARKS
MCCOMB         MOSUNNY   80  71  74 S6        30.09S
GULFPORT       PTSUNNY   83  69  62 SE12      30.09R
BILOXI         SUNNY     82  70  65 S7        30.09S
PASCAGOULA     CLOUDY    80  68  66 S8        30.10R
STENNIS ARPT*  LGT RAIN  75  70  83 MISG      30.10R

$$

COASTAL OBSERVATIONS
LAKE AND NEARSHORE STATIONS

STATION/POSITION TIME  TEMP    WIND        PRES    WAVE
                       AIR SEA DIR/SP/G            HT/PER
                 (UTC) (F)     (DEG/KT/KT) (MB)    (FT/S)
PASCAGOULA       1400   80     170/  5/  7 1018.5
WAVELAND YACHT   1400   80 81  150/  7/  8 1018.9
GRAND ISLE       1400   81 83  110/  2/  5 1018.5
SOUTHWEST PASS   1400   79 74   70/  5/  6 1018.8
NEW CANAL        1400   81 81   CALM  /  3 1017.8
SHELL BEACH      1400   80 81  130/  5/  7 1018.1

OFFSHORE STATIONS

STATION/POSITION TIME  TEMP    WIND        PRES    WAVE
                       AIR SEA DIR/SP/G            HT/PER
                 (UTC) (F)     (DEG/KT/KT) (MB)    (FT/S)
64 S DAUPHIN ISL 1450   78 81  100/  8/ 10 1019.1    3/ 6

$$



USA.gov is the U.S. government's official web portal to all federal, state and local government web resources and services.